When you browse on this site, cookies collect data to enhance your experience and personalize the content and advertising you see.
Visit our Privacy Policy to learn more. By continuing to use the site, you agree to this use of cookies and data.
  • In United Kingdom
  • List of Countries
  • For 7 days
  • Water Temperature
  • Weather Map
  • Weather Widgets
  • user-avatar
    Login

    Hourly Weather Dombovar

    Today, 21 October, Monday

    Time Temperature Precipitation Wind Pressure Humidity
    00:00 +17°C° 0 mm 3 mps 751 mmHg 72%
    01:00 +17°C° 0 mm 3 mps 751 mmHg 76%
    02:00 +17°C° 0 mm 4 mps 751 mmHg 77%
    03:00 +17°C° 0 mm 4 mps 751 mmHg 78%
    04:00 +17°C° 0 mm 4 mps 751 mmHg 79%
    05:00 +17°C° 0 mm 4 mps 752 mmHg 78%
    06:00 +17°C° 0 mm 4 mps 752 mmHg 77%
    07:00 +17°C° 0 mm 4 mps 752 mmHg 75%
    08:00 +19°C° 0 mm 4 mps 752 mmHg 66%
    09:00 +21°C° 0 mm 5 mps 752 mmHg 57%
    10:00 +23°C° 0 mm 5 mps 752 mmHg 48%
    11:00 +25°C° 0 mm 5 mps 752 mmHg 45%
    12:00 +27°C° 0 mm 5 mps 752 mmHg 42%
    13:00 +28°C° 0 mm 6 mps 752 mmHg 39%
    14:00 +27°C° 0 mm 5 mps 752 mmHg 42%
    15:00 +26°C° 0 mm 4 mps 752 mmHg 45%
    16:00 +25°C° 0 mm 3 mps 752 mmHg 48%
    17:00 +24°C° 0 mm 3 mps 752 mmHg 52%
    18:00 +22°C° 0 mm 3 mps 752 mmHg 56%
    19:00 +20°C° 0 mm 2 mps 753 mmHg 61%
    20:00 +20°C° 0 mm 2 mps 753 mmHg 61%
    21:00 +19°C° 0 mm 2 mps 753 mmHg 62%
    22:00 +19°C° 0 mm 2 mps 753 mmHg 63%
    23:00 +18°C° 0 mm 2 mps 753 mmHg 64%

    Tomorrow, 22 October, Tuesday

    Time Temperature Precipitation Wind Pressure Humidity
    00:00 +18°C° 0 mm 2 mps 753 mmHg 66%
    01:00 +18°C° 0 mm 2 mps 753 mmHg 67%
    02:00 +17°C° 0 mm 2 mps 753 mmHg 69%
    03:00 +17°C° 0 mm 2 mps 753 mmHg 71%
    04:00 +16°C° 0 mm 1 mps 753 mmHg 73%
    05:00 +16°C° 0 mm 1 mps 754 mmHg 74%
    06:00 +16°C° 0 mm 1 mps 754 mmHg 74%
    07:00 +16°C° 0 mm 1 mps 754 mmHg 75%
    08:00 +19°C° 0 mm 1 mps 754 mmHg 68%
    09:00 +21°C° 0 mm 1 mps 755 mmHg 61%
    10:00 +23°C° 0 mm 1 mps 755 mmHg 54%
    11:00 +25°C° 0 mm 1 mps 755 mmHg 50%
    12:00 +26°C° 0 mm 1 mps 755 mmHg 46%
    13:00 +27°C° 0 mm 1 mps 755 mmHg 42%
    14:00 +26°C° 0 mm 1 mps 754 mmHg 44%
    15:00 +25°C° 0 mm 1 mps 754 mmHg 47%
    16:00 +25°C° 0 mm 1 mps 753 mmHg 50%
    17:00 +23°C° 0 mm 1 mps 754 mmHg 53%
    18:00 +22°C° 0 mm 1 mps 754 mmHg 57%
    19:00 +20°C° 0 mm 1 mps 754 mmHg 61%
    20:00 +20°C° 0 mm 1 mps 754 mmHg 62%
    21:00 +19°C° 0 mm 1 mps 754 mmHg 63%
    22:00 +19°C° 0 mm 1 mps 754 mmHg 64%
    23:00 +19°C° 0 mm 1 mps 754 mmHg 64%

    Day after tomorrow, 23 October, Wednesday

    Time Temperature Precipitation Wind Pressure Humidity
    00:00 +18°C° 0 mm 1 mps 754 mmHg 63%
    01:00 +18°C° 0 mm 1 mps 754 mmHg 63%
    02:00 +18°C° 0 mm 1 mps 753 mmHg 63%
    03:00 +18°C° 0 mm 1 mps 753 mmHg 63%
    04:00 +16°C° 0 mm 1 mps 753 mmHg 63%
    05:00 +16°C° 0 mm 1 mps 753 mmHg 64%
    06:00 +16°C° 0 mm 1 mps 753 mmHg 65%
    07:00 +16°C° 0 mm 1 mps 753 mmHg 66%
    08:00 +19°C° 0 mm 1 mps 753 mmHg 59%
    09:00 +21°C° 0 mm 1 mps 753 mmHg 52%
    10:00 +23°C° 0 mm 2 mps 753 mmHg 46%
    11:00 +24°C° 0 mm 2 mps 753 mmHg 42%
    12:00 +25°C° 0 mm 2 mps 752 mmHg 39%
    13:00 +26°C° 0 mm 3 mps 752 mmHg 35%
    14:00 +26°C° 0 mm 2 mps 751 mmHg 38%
    15:00 +25°C° 0 mm 2 mps 751 mmHg 41%
    16:00 +24°C° 0 mm 2 mps 750 mmHg 43%
    17:00 +23°C° 0 mm 2 mps 751 mmHg 46%
    18:00 +20°C° 0 mm 2 mps 751 mmHg 50%
    19:00 +19°C° 0 mm 2 mps 751 mmHg 53%
    20:00 +18°C° 0 mm 2 mps 751 mmHg 55%
    21:00 +18°C° 0 mm 2 mps 751 mmHg 56%
    22:00 +18°C° 0 mm 1 mps 751 mmHg 58%
    23:00 +18°C° 0 mm 1 mps 751 mmHg 60%

    24 October, Thursday

    Time Temperature Precipitation Wind Pressure Humidity
    00:00 +16°C° 0 mm 1 mps 750 mmHg 62%
    01:00 +16°C° 0 mm 1 mps 750 mmHg 64%
    02:00 +15°C° 0 mm 1 mps 750 mmHg 66%
    03:00 +15°C° 0 mm 1 mps 750 mmHg 67%
    04:00 +15°C° 0 mm 1 mps 750 mmHg 69%
    05:00 +15°C° 0 mm 1 mps 750 mmHg 68%
    06:00 +15°C° 0 mm 1 mps 750 mmHg 68%
    07:00 +15°C° 0 mm 1 mps 750 mmHg 68%
    08:00 +18°C° 0 mm 1 mps 750 mmHg 60%
    09:00 +20°C° 0 mm 2 mps 750 mmHg 51%
    10:00 +23°C° 0 mm 2 mps 750 mmHg 43%
    11:00 +25°C° 0 mm 2 mps 750 mmHg 40%
    12:00 +26°C° 0 mm 2 mps 749 mmHg 36%
    13:00 +27°C° 0 mm 2 mps 749 mmHg 32%
    14:00 +26°C° 0 mm 2 mps 749 mmHg 36%
    15:00 +25°C° 0 mm 2 mps 748 mmHg 39%
    16:00 +24°C° 0 mm 2 mps 748 mmHg 42%
    17:00 +23°C° 0 mm 2 mps 748 mmHg 46%
    18:00 +20°C° 0 mm 2 mps 749 mmHg 50%
    19:00 +19°C° 0 mm 2 mps 749 mmHg 54%
    20:00 +19°C° 0 mm 1 mps 749 mmHg 55%
    21:00 +19°C° 0 mm 1 mps 749 mmHg 56%
    22:00 +18°C° 0 mm 1 mps 749 mmHg 57%
    23:00 +18°C° 0 mm 1 mps 750 mmHg 58%

    25 October, Friday

    Time Temperature Precipitation Wind Pressure Humidity
    00:00 +16°C° 0 mm 1 mps 750 mmHg 59%
    01:00 +15°C° 0 mm 0 mps 750 mmHg 59%
    02:00 +14°C° 0 mm 0 mps 750 mmHg 60%
    03:00 +14°C° 0 mm 0 mps 750 mmHg 61%
    04:00 +14°C° 0 mm 0 mps 750 mmHg 62%
    05:00 +15°C° 0 mm 1 mps 750 mmHg 62%
    06:00 +14°C° 0 mm 1 mps 751 mmHg 62%
    07:00 +14°C° 0 mm 1 mps 751 mmHg 63%
    08:00 +16°C° 0 mm 1 mps 752 mmHg 56%
    09:00 +18°C° 0 mm 2 mps 752 mmHg 49%
    10:00 +20°C° 0 mm 2 mps 752 mmHg 43%
    11:00 +23°C° 0 mm 2 mps 753 mmHg 40%
    12:00 +24°C° 0 mm 2 mps 753 mmHg 37%
    13:00 +25°C° 0 mm 2 mps 753 mmHg 35%
    14:00 +24°C° 0 mm 2 mps 753 mmHg 37%
    15:00 +23°C° 0 mm 2 mps 753 mmHg 40%
    16:00 +23°C° 0 mm 1 mps 752 mmHg 43%
    17:00 +21°C° 0 mm 1 mps 753 mmHg 47%
    18:00 +20°C° 0 mm 1 mps 753 mmHg 51%
    19:00 +18°C° 0 mm 1 mps 753 mmHg 55%
    20:00 +18°C° 0 mm 1 mps 753 mmHg 58%
    21:00 +16°C° 0 mm 1 mps 754 mmHg 61%
    22:00 +15°C° 0 mm 1 mps 754 mmHg 64%
    23:00 +15°C° 0 mm 1 mps 754 mmHg 67%

    26 October, Saturday

    Time Temperature Precipitation Wind Pressure Humidity
    00:00 +15°C° 0 mm 1 mps 754 mmHg 69%
    01:00 +14°C° 0 mm 1 mps 754 mmHg 71%
    02:00 +13°C° 0 mm 0 mps 754 mmHg 72%
    03:00 +12°C° 0 mm 0 mps 754 mmHg 73%
    04:00 +12°C° 0 mm 0 mps 754 mmHg 74%
    05:00 +12°C° 0 mm 0 mps 754 mmHg 74%
    06:00 +12°C° 0 mm 0 mps 754 mmHg 73%
    07:00 +12°C° 0 mm 0 mps 754 mmHg 73%
    08:00 +14°C° 0 mm 0 mps 754 mmHg 64%
    09:00 +17°C° 0 mm 0 mps 754 mmHg 55%
    10:00 +21°C° 0 mm 1 mps 755 mmHg 46%
    11:00 +22°C° 0 mm 1 mps 754 mmHg 43%
    12:00 +23°C° 0 mm 1 mps 754 mmHg 40%
    13:00 +24°C° 0 mm 1 mps 753 mmHg 36%
    14:00 +24°C° 0 mm 1 mps 753 mmHg 39%
    15:00 +23°C° 0 mm 1 mps 753 mmHg 41%
    16:00 +22°C° 0 mm 1 mps 752 mmHg 44%
    17:00 +21°C° 0 mm 1 mps 752 mmHg 48%
    18:00 +19°C° 0 mm 1 mps 752 mmHg 52%
    19:00 +16°C° 0 mm 0 mps 752 mmHg 56%
    20:00 +15°C° 0 mm 0 mps 753 mmHg 57%
    21:00 +15°C° 0 mm 0 mps 753 mmHg 59%
    22:00 +14°C° 0 mm 0 mps 753 mmHg 61%
    23:00 +14°C° 0 mm 0 mps 753 mmHg 63%

    27 October, Sunday

    Time Temperature Precipitation Wind Pressure Humidity
    00:00 +13°C° 0 mm 0 mps 753 mmHg 65%
    01:00 +13°C° 0 mm 0 mps 753 mmHg 67%
    02:00 +13°C° 0 mm 0 mps 753 mmHg 70%
    03:00 +12°C° 0 mm 0 mps 753 mmHg 73%
    04:00 +12°C° 0 mm 0 mps 753 mmHg 76%
    05:00 +13°C° 0 mm 1 mps 753 mmHg 77%
    06:00 +13°C° 0 mm 1 mps 753 mmHg 78%
    07:00 +13°C° 0 mm 1 mps 753 mmHg 79%
    08:00 +15°C° 0 mm 1 mps 754 mmHg 71%
    09:00 +17°C° 0 mm 2 mps 754 mmHg 63%
    10:00 +20°C° 0 mm 2 mps 754 mmHg 54%
    11:00 +21°C° 0 mm 2 mps 754 mmHg 51%
    12:00 +22°C° 0 mm 3 mps 754 mmHg 49%
    13:00 +24°C° 0 mm 3 mps 753 mmHg 46%
    14:00 +22°C° 0 mm 3 mps 753 mmHg 48%
    15:00 +21°C° 0 mm 2 mps 753 mmHg 50%
    16:00 +20°C° 0 mm 2 mps 753 mmHg 51%
    17:00 +19°C° 0 mm 2 mps 753 mmHg 55%
    18:00 +17°C° 0 mm 2 mps 753 mmHg 58%
    19:00 +16°C° 0 mm 2 mps 753 mmHg 61%
    20:00 +15°C° 0 mm 2 mps 754 mmHg 65%
    21:00 +15°C° 0 mm 2 mps 754 mmHg 69%
    22:00 +14°C° 0 mm 2 mps 754 mmHg 73%
    23:00 +14°C° 0 mm 2 mps 754 mmHg 76%
    Show more